Regional Weather Roundup
Issued by NWS

Home | Current Version | Previous Version | Text Only | Print | Product List | Glossary Off
Versions: 1 2 3 4 5 6 7 8 9 10 11 12 13 14 15 16 17 18 19 20 21 22 23 24 25 26 27 28 29 30 31 32 33 34 35 36 37 38 39 40 41 42 43 44 45 46 47 48 49 50

000
ASUS43 KLMK 041902
RWRKY
KENTUCKY REGIONAL WEATHER ROUNDUP
NATIONAL WEATHER SERVICE LOUISVILLE KY
300 PM EDT MON MAY 04 2015

NOTE "FAIR" INDICATES FEW OR NO CLOUDS BELOW 12,000 FEET
WITH NO SIGNIFICANT WEATHER AND/OR OBSTRUCTIONS TO VISIBILITY.

KYZ001>023-026-027-061>063-070>075-042000-
WESTERN AND SOUTH CENTRAL KENTUCKY

CITY           SKY/WX    TMP DP  RH WIND       PRES   REMARKS
PADUCAH        MOSUNNY   82  54  37 SW10G22   30.17F
HENDERSON      PTSUNNY   84  55  37 SW18      30.15S
OWENSBORO      MOSUNNY   84  61  45 SW15      30.17F
HOPKINSVILLE   PTSUNNY   80  58  48 SW8       30.21S
BOWLING GREEN  PTSUNNY   80  55  42 SW7       30.22F
GLASGOW        NOT AVBL
$$

KYZ024-025-028>034-038-045-046-053-042000-
NORTH CENTRAL KENTUCKY

CITY           SKY/WX    TMP DP  RH WIND       PRES   REMARKS
LOUISVILLE/SDF PTSUNNY   84  54  35 SW12      30.17F
LOUISVILLE/LOU MOSUNNY   83  55  38 S6        30.17F
FORT KNOX      MOSUNNY   83  57  40 SW9       30.17F
$$

KYZ035>037-039>044-047>052-055>060-089>105-042000-
NORTHEAST KENTUCKY

CITY           SKY/WX    TMP DP  RH WIND       PRES   REMARKS
LEXINGTON      SUNNY     80  55  42 SW13      30.21F
COVINGTON      PTSUNNY   77  55  46 W8        30.18S
FRANKFORT      MOSUNNY   80  54  40 SW13      30.19F
$$

KYZ054-064>069-076>088-106>120-042000-
SOUTHEAST KENTUCKY

CITY           SKY/WX    TMP DP  RH WIND       PRES   REMARKS
JACKSON        MOSUNNY   79  48  33 VRB3      30.25F
LONDON         MOSUNNY   81  43  26 VRB5      30.25F
SOMERSET       NOT AVBL
MIDDLESBORO    CLOUDY    78  50  37 S5        30.27F
MONTICELLO     PTCLDY    81  51  35 SW9G17    30.28F
$$



USA.gov is the U.S. government's official web portal to all federal, state and local government web resources and services.